Simultaneous Nadir Overpasses (SNOs) Predictions

Prediction of SNOs between AQUA and LANDSAT-8 Satellite Orbit:

Table of predicted SNOs for the next 14.0 days since TLE Epoch: 1/5/2025
Index Date (AQUA) Time (AQUA) Lat,Lon (AQUA) SZA (AQUA ) Date (LANDSAT-8) Time (LANDSAT-8) Lat,Lon (LANDSAT-8) SZA (LANDSAT-8 ) Distance(km) Time Diff (sec)
1 01/17/2025 09:45:07 74.07, 39.95 94.66 01/17/2025 09:44:02 74.02, 37.15 94.59 85.83 65
2 01/17/2025 10:34:32 -74.41,-153.21 85.01 01/17/2025 10:33:22 -74.42,-154.29 85.02 32.34 70
3 01/17/2025 11:23:56 74.61, 13.97 95.18 01/17/2025 11:22:44 74.59, 13.76 95.15 6.63 72
4 01/17/2025 12:13:15 -74.65,-178.45 84.80 01/17/2025 12:12:11 -74.63,-178.51 84.82 3.12 64
5 01/17/2025 13:02:35 74.64, -10.76 95.19 01/17/2025 13:01:36 74.64, -10.83 95.19 2.13 59
6 1/2025 11:55:27 73.10, -8.18 95.03 01/11/2025 11:56:14 73.08, -8.22 95.00 2.92 47
7 01/11/2025 12:46:10 -73.03, 159.29 85.06 01/11/2025 12:45:37 -73.01, 159.30 85.07 2.42 33
8 01/13/2025 23:07:52 73.05,-176.19 94.58 01/13/2025 23:08:03 73.07,-176.24 94.59 2.52 11
9 01/13/2025 23:58:35 -72.98, -8.71 85.52 01/13/2025 23:57:26 -73.00, -8.71 85.48 2.91 69
10 01/16/2025 09:29:35 -73.14,-151.80 85.77 01/16/2025 09:30:32 -73.16,-151.73 85.77 3.27 57
11 01/16/2025 10:20:19 73.07, 15.67 94.15 01/16/2025 10:19:52 73.05, 15.72 94.13 3.09 27
12 01/18/2025 20:42:01 -73.12, 40.14 86.28 01/18/2025 20:42:20 -73.13, 40.22 86.28 3.06 19
13 01/18/2025 21:32:44 73.00,-152.29 93.59 01/18/2025 21:31:40 73.01,-152.34 93.61 1.95 64



Historial Predications of SNOs between NOAA-20 and TERRA

74.74,-134.31 95.22 01/17/2025 21:15:59 74.74,-134.19 95.22 3.52 10 16 01/17/2025 22:05:07 -74.73, 33.40 84.80 01/17/2025 22:05:27 -74.72, 33.40 84.81 0.58 20 17 01/17/2025 22:54:27 74.72,-158.92 95.19 01/17/2025 22:54:52 74.74,-158.92 95.20 1.69 25 18 01/17/2025 23:43:45 -74.71, 8.79 84.84 01/17/2025 23:44:20 -74.72, 8.68 84.82 3.60 35 19 01/18/2025 00:33:06 74.75, 176.34 95.20 01/18/2025 00:33:45 74.74, 176.36 95.19 1.92 39 20 01/18/2025 01:22:24 -74.74, -15.95 84.82 01/18/2025 01:23:13 -74.72, -16.04 84.84 3.44 49 21 01/18/2025 02:11:44 74.73, 151.74 95.17 01/18/2025 02:12:38 74.73, 151.64 95.17 2.91 54 22 01/18/2025 03:01:03 -74.77, -40.68 84.81 01/18/2025 03:02:05 -74.77, -40.64 84.80 1.33 62 23 01/18/2025 03:50:23 74.76, 127.00 95.19 01/18/2025 03:51:30 74.78, 127.04 95.21 2.67 67 24 01/18/2025 04:39:45 -74.95, -65.82 84.64 01/18/2025 04:40:55 -74.92, -64.97 84.66 24.63 70 25 01/18/2025 05:29:09 75.15, 101.32 95.55 01/18/2025 05:30:17 75.09, 103.11 95.51 51.54 68


Historial Predications of SNOs between AQUA and LANDSAT-8
